Volver al catálogo

STARLINK-37518

ActivoComunicacionesVLEO
NORAD 69259·PAYLOAD·🇺🇸 United States

Lanzado May 29, 2026 desde Cape Canaveral Space Force Station

Loading…

Próximos Pases (próximas 24 horas)

TLE

ActualizadoSource: CelesTrak SupGP

Época: Sep 14, 2026, 21:28 UTC

1 69259C 26117X   26257.89493056 -.00015516  00000+0 -45831-3 0  2574
2 69259  53.1579 180.2457 0001269  87.9158 221.8910 15.34406505    13

Sigue STARLINK-37518 en tiempo real con AllMySat

Download on the App Store